"Pseudo-MPEC" for 2015-010C = NORAD 40426 = Falcon 9-016 Stage 2
Created 2018 Apr 18 15:56:15 UT using Find_Orb
Click here for an explanation of pseudo-MPECs
Astrometry: 2015-010C C2015 09 14.08825 03 59 16.95 +22 00 56.7 x11.8 w D0520K95 2015-010C C2015 09 14.08932 03 59 29.09 +22 02 33.4 x11.6 w D0520K95 2015-010C C2015 09 14.09038 03 59 41.17 +22 04 14.4 x11.6 w D0520K95 2015-010C C2015 09 14.09899 04 01 18.31 +22 18 02.4 x11.8 w D0520K95 2015-010C C2015 09 14.10006 04 01 30.65 +22 19 48.8 x11.7 w D0520K95 2015-010C tC2015 10 08.23738 04 20 41.15 +24 24 04.1 x12.5 RqD0522Y00 2015-010C tC2015 10 08.23840 04 20 52.18 +24 25 28.6 x12.7 RqD0522Y00 2015-010C tC2015 10 08.23942 04 21 03.30 +24 26 53.8 x13.0 RqD0522Y00 2015-010C tC2016 12 06.05734 07 14 11.09 +11 08 57.6 x13.0 Rq Y00 2015-010C tC2016 12 06.05852 07 14 28.07 +11 06 18.8 x13.8 Rq Y00 2015-010C tC2016 12 06.05956 07 14 42.90 +11 03 57.6 x13.9 Rq Y00 2015-010C tC2016 12 19.30229 08 27 01.15 -02 14 02.3 x11.6 RqD0553Y00 2015-010C tC2016 12 19.30406 08 27 23.05 -02 18 03.3 x11.7 RqD0553Y00 2015-010C tC2016 12 19.30584 08 27 45.08 -02 22 04.9 x12.4 RqD0553Y00 2015-010C tC2016 12 30.16763 07 11 28.74 +07 11 56.0 x12.6 RqD0553Y00 2015-010C tC2016 12 30.16893 07 11 43.48 +07 08 43.3 x12.6 RqD0553Y00 2015-010C tC2016 12 30.16993 07 11 54.99 +07 06 12.6 x12.7 RqD0553Y00 2015-010C tC2016 12 30.17025 07 11 58.45 +07 05 26.2 x12.5 RqD0553Y00 2015-010C tC2016 12 30.17126 07 12 10.02 +07 02 54.6 x12.5 RqD0553Y00 2015-010C tC2016 12 30.17227 07 12 21.43 +07 00 25.1 x12.4 RqD0553Y00 2015-010C tC2016 12 31.27923 08 10 38.16 -01 32 26.2 x12.2 RqD0553Y00 2015-010C tC2016 12 31.28122 08 10 59.33 -01 36 23.0 x12.0 RqD0553Y00 2015-010C tC2016 12 31.28278 08 11 16.12 -01 39 29.8 x11.7 RqD0553Y00 2015-010C tC2017 01 30.04259 07 03 28.70 +06 23 11.3 x12.1 RqD0554Y00 2015-010C tC2017 01 30.04365 07 03 44.92 +06 19 43.9 x11.9 RqD0554Y00 2015-010C tC2017 01 30.04474 07 04 01.68 +06 16 09.5 x12.1 RqD0554Y00 2015-010C tC2017 02 20.96410 09 47 17.48 -12 05 53.7 x11.7 RqD0555Y00 2015-010C tC2017 02 20.96512 09 47 43.45 -12 08 31.7 x11.7 RqD0555Y00 2015-010C tC2017 02 20.96619 09 48 10.69 -12 11 17.2 x11.6 RqD0555Y00 2015-010C tC2017 03 23.01622 09 54 00.06 -16 28 20.0 x12.7 RqD0555Y00 2015-010C tC2017 03 23.01724 09 54 23.73 -16 30 47.1 x12.6 RqD0555Y00 2015-010C tC2017 03 23.01827 09 54 47.58 -16 33 14.9 x12.6 RqD0555Y00 2015-010C tC2017 12 19.14152 09 55 50.41 -21 12 52.4 12.8 Rq Y00 2015-010C tC2017 12 19.14322 09 56 30.36 -21 13 27.0 12.5 Rq Y00 2015-010C tC2017 12 19.14428 09 56 55.54 -21 13 49.2 12.3 Rq Y00 2015-010C tC2018 03 07.99513 11 25 56.20 -15 34 42.6 11.8 Rq Y00 2015-010C tC2018 03 07.99612 11 26 10.28 -15 33 42.4 12.1 Rq Y00 2015-010C tC2018 03 07.99719 11 26 25.40 -15 32 37.2 12.3 Rq Y00 2015-010C tC2018 03 19.08541 11 04 16.05 -16 02 41.4 11.9 Rq Y00 2015-010C tC2018 03 19.08655 11 04 31.81 -16 00 54.3 12.0 Rq Y00 2015-010C tC2018 03 19.08720 11 04 40.80 -15 59 53.3 11.8 Rq Y00 2015-010C tC2018 04 07.93773 12 20 11.82 -09 08 55.9 11.6 Rq Y00 2015-010C tC2018 04 07.93873 12 20 25.23 -09 07 28.9 11.4 Rq Y00 2015-010C tC2018 04 07.94016 12 20 44.25 -09 05 24.5 11.8 Rq Y00 2015-010C tC2018 04 18.03722 11 15 06.37 -13 13 13.2 11.6 Rq Y00 2015-010C tC2018 04 18.03821 11 15 19.99 -13 11 24.6 11.9 Rq Y00 2015-010C tC2018 04 18.03913 11 15 32.67 -13 09 42.9 12.3 Rq Y00 Station data: (K95) MASTER-SAAO Observatory, Sutherland (S32.380484 E20.811060) South Africa. (Y00) SONEAR Observatory, Oliveira (S20.715082 W44.784960) Brazil. Observers C. Jacques, E. Pimentel, J. Barros. Measurer C. Jacques. 0.28-m f/2.2 astrograph + CCD, 0.45-m f/2.9 astrograph + CCD. Orbital elements: 2015-010C = NORAD 40426 = Falcon 9-016 Stage 2 Perigee 2018 Apr 11.770462 +/- 5.78e-5 TT = 18:29:27 (JD 2458220.270462) Epoch 2018 Apr 12.0 TT; AMR 0.012268 +/- 0.00206 m2/kg Gray M 96.56343 +/- 0.024 (J2000 equator) n 420.68645706 +/- 0.000131 Peri. 152.01693 +/- 0.0051 a 38074.2320 +/- 0.00791 Node 206.06275 +/- 0.00048 e 0.8165195 +/- 2.59e-5 Incl. 23.03601 +/- 0.0011 P1232.25m/0.856d H 28.2 G 0.15 U 6.8 q 6985.87673 +/- 0.986 Q 69162.5872 +/- 0.995 15 of 47 observations 2017 Dec. 19-2018 Apr. 18; mean residual 6".966
Residuals in arcseconds: 150914 K95(840'+ 290'+) 161230 Y00( 22d+ 621'-) 171219 Y00 6.89- .044+ 150914 K95(838'+ 290'+) 161230 Y00( 22d+ 620'-) 171219 Y00 10.9- 1.14+ 150914 K95(837'+ 290'+) 161230 Y00( 21d+ 615'-) 171219 Y00 6.59- .351+ 150914 K95(828'+ 287'+) 161230 Y00( 21d+ 611'-) 180307 Y00 7.60- 1.26- 150914 K95(827'+ 287'+) 161231 Y00(697'+ 322'-) 180307 Y00 8.23- 1.42- 151008 Y00(546'+ 170'+) 161231 Y00(697'+ 322'-) 180307 Y00 9.49- 1.62- 151008 Y00(545'+ 170'+) 161231 Y00(696'+ 322'-) 180319 Y00 7.62+ 2.32+ 151008 Y00(545'+ 170'+) 170130 Y00( 22d+ 675'-) 180319 Y00 8.98+ 3.21+ 161206 Y00( 40d+ 23d-) 170130 Y00( 21d+ 667'-) 180319 Y00 10.2+ 3.61+ 161206 Y00( 39d+ 23d-) 170130 Y00( 21d+ 660'-) 180407 Y00 9.54- 3.82- 161206 Y00( 39d+ 23d-) 170220 Y00(611'+ 195'-) 180407 Y00 8.53- 3.63- 161219 Y00(819'+ 375'-) 170220 Y00(614'+ 196'-) 180407 Y00 8.81- 3.81- 161219 Y00(820'+ 376'-) 170220 Y00(616'+ 196'-) 180418 Y00 10.9- 4.48- 161219 Y00(821'+ 376'-) 170323 Y00(549'+ 169'-) 180418 Y00 11.7- 5.39- 161230 Y00( 22d+ 631'-) 170323 Y00(552'+ 170'-) 180418 Y00 11.7- 5.42- 161230 Y00( 22d+ 625'-) 170323 Y00(554'+ 170'-) Ephemerides (geocentric): Date (UTC) HH RA Dec delta elong mag " sig PA ---- -- -- -- ------------- ----------- ------ ----- --- ---- --- 2018 04 18 00 11 03 43.337 -15 01 56.27 59767 141.0 12.8 5.1 63 2018 04 18 01 11 18 51.576 -13 49 53.74 63554 144.7 12.8 2.5 55 2018 04 18 02 11 32 22.298 -12 41 58.66 66314 148.0 12.8 .77 19 2018 04 18 03 11 44 52.241 -11 36 18.26 68122 151.0 12.8 1.0 99 2018 04 18 04 11 56 47.251 -10 31 18.96 69024 153.8 12.7 1.9 81 2018 04 18 05 12 08 27.859 -09 25 33.78 69039 156.6 12.6 2.6 76 2018 04 18 06 12 20 12.695 -08 17 31.75 68168 159.3 12.5 2.9 72 2018 04 18 07 12 32 21.243 -07 05 26.15 66391 162.0 12.4 2.9 70 2018 04 18 08 12 45 16.949 -05 46 57.86 63665 164.6 12.2 2.5 67 2018 04 18 09 12 59 32.018 -04 18 46.96 59916 167.2 12.0 1.6 62 2018 04 18 10 13 15 56.627 -02 35 36.67 55028 169.2 11.7 .50 102 2018 04 18 11 13 36 00.220 -00 28 06.20 48820 169.5 11.4 4.3 73 2018 04 18 12 14 02 51.910 +02 22 51.46 40992 166.0 11.2 12.6 70 2018 04 18 13 14 45 13.215 +06 45 51.11 31001 156.9 10.9 35.2 70 2018 04 18 14 16 24 49.358 +15 36 47.24 17758 132.4 10.4 151 73 2018 04 18 15 03 27 36.593 -10 52 38.76 8666 33.5 14?? 766 110 2018 04 18 16 08 18 43.842 -22 43 36.52 23905 101.8 11.9 98.6 85 2018 04 18 17 09 31 11.642 -20 35 51.19 35575 118.4 12.3 39.6 77 2018 04 18 18 10 09 20.721 -18 39 47.32 44553 127.4 12.5 21.0 73 2018 04 18 19 10 35 09.559 -17 02 50.91 51643 133.5 12.7 12.2 69 2018 04 18 20 10 54 57.103 -15 38 54.12 57259 138.2 12.7 7.1 66 2018 04 18 21 11 11 19.926 -14 23 25.39 61644 142.2 12.8 3.8 60 2018 04 18 22 11 25 37.500 -13 13 21.56 64945 145.6 12.8 1.6 46 2018 04 18 23 11 38 36.407 -12 06 31.62 67258 148.7 12.8 .59 143 2018 04 19 00 11 50 47.433 -11 01 12.95 68643 151.6 12.8 1.4 89 2018 04 19 01 12 02 33.460 -09 55 56.04 69134 154.4 12.7 2.2 79 2018 04 19 02 12 14 13.787 -08 49 13.17 68741 157.1 12.6 2.7 74 2018 04 19 03 12 26 07.108 -07 39 27.59 67456 159.8 12.5 2.9 72 2018 04 19 04 12 38 34.300 -06 24 40.08 65248 162.4 12.3 2.8 69 2018 04 19 05 12 52 02.110 -05 02 08.10 62060 165.1 12.1 2.1 66 2018 04 19 06 13 07 09.487 -03 27 47.53 57802 167.5 11.9 .80 54 2018 04 19 07 13 25 00.870 -01 34 52.46 52333 169.0 11.6 1.9 77 2018 04 19 08 13 47 39.719 +00 49 20.41 45423 168.1 11.3 7.3 71 2018 04 19 09 14 19 55.996 +04 13 14.57 36687 162.7 11.1 19.9 70 2018 04 19 10 15 18 01.638 +10 00 05.86 25380 149.2 10.7 62.1 70 2018 04 19 11 18 59 35.696 +22 41 44.03 10320 96.7 10.3 500 86 2018 04 19 12 06 50 27.416 -22 32 16.49 16007 81.2 11.9 226 94 2018 04 19 13 09 00 01.466 -21 44 12.14 29709 110.6 12.1 60.9 81 2018 04 19 14 09 51 27.394 -19 36 09.08 39993 122.5 12.4 29.0 75 2018 04 19 15 10 22 39.322 -17 49 09.39 48029 129.8 12.6 16.3 71 2018 04 19 16 10 45 13.112 -16 18 32.93 54400 135.2 12.7 9.6 68 2018 04 19 17 11 03 12.708 -14 58 42.64 59424 139.5 12.8 5.5 63 2018 04 19 18 11 18 30.227 -13 45 50.68 63292 143.2 12.8 2.7 56 2018 04 19 19 11 32 06.779 -12 37 20.52 66127 146.4 12.8 .93 27 2018 04 19 20 11 44 40.281 -11 31 15.90 68006 149.4 12.8 .90 106 2018 04 19 21 11 56 37.177 -10 26 01.41 68975 152.2 12.8 1.8 84 2018 04 19 22 12 08 18.271 -09 20 09.41 69057 154.9 12.7 2.4 77 2018 04 19 23 12 20 02.253 -08 12 09.23 68254 157.6 12.6 2.8 73 2018 04 20 00 12 32 08.464 -07 00 15.61 66547 160.3 12.4 2.9 71 2018 04 20 01 12 44 59.947 -05 42 12.57 63895 162.9 12.3 2.5 68